Regional Weather Roundup
Issued by NWS

Home | Current Version | Previous Version | Text Only | Print | Product List | Glossary Off
Versions: 1 2 3 4 5 6 7 8 9 10 11 12 13 14 15 16 17 18 19 20 21 22 23 24 25 26 27 28 29 30 31 32 33 34 35 36 37 38 39 40 41 42 43 44 45 46 47 48 49 50

425
ASUS43 KFSD 160502
RWRSD

WEATHER ROUNDUP FOR SOUTH DAKOTA
NATIONAL WEATHER SERVICE SIOUX FALLS SD
1100 PM CST SUN JAN 15 2017

NOTE: "FAIR" INDICATES FEW OR NO CLOUDS BELOW 12,000 FEET WITH NO
SIGNIFICANT WEATHER AND/OR OBSTRUCTIONS TO VISIBILITY.


SDZ001>005-009-010-012>017-160600-
NORTHWEST AND NORTH CENTRAL SOUTH DAKOTA

CITY           SKY/WX    TMP DP  RH WIND       PRES   REMARKS
BUFFALO          N/A     21  11  65 W6        29.96S WCI  13
FAITH            N/A     13   9  84 NW5       30.05R WCI   5
MOBRIDGE       CLOUDY     3  -3  76 SE9       30.06R WCI -12
$$

SDZ012>016-024>037-041>051-057-063-072>074-160600-
SOUTHWEST AND SOUTH CENTRAL SOUTH DAKOTA

CITY           SKY/WX    TMP DP  RH WIND       PRES   REMARKS
RAPID CTY ARPT CLOUDY    21   8  57 N6        30.03S WCI  13
PIERRE         CLOUDY     9   5  84 CALM      30.09S
CUSTER         CLOUDY    25  13  60 NW3       30.00S
ELLSWORTH AFB  CLOUDY    19   6  58 NW3       30.03R
PHILIP         CLOUDY     8   6  92 W8        30.08R WCI  -4
PINE RIDGE     CLOUDY    19  16  88 E3        30.02F
SPEARFISH      FAIR      25   9  50 W7        30.03S WCI  17
WINNER         FAIR      24  19  81 W3        30.07S
$$

SDZ004>011-016>023-039-040-160600-
NORTHEAST SOUTH DAKOTA

CITY           SKY/WX    TMP DP  RH WIND       PRES   REMARKS
ABERDEEN       CLOUDY     1  -4  79 S3        30.12S
WATERTOWN      CLOUDY    10   7  87 S3        30.10F FOG
BROOKINGS      CLOUDY    19  16  88 SE5       30.12S WCI  12
SISSETON         N/A     14  12  92 SE6       30.09F WCI   5
$$

SDZ017-020-022-023-036>040-048>070-160600-
SOUTHEAST SOUTH DAKOTA

CITY           SKY/WX    TMP DP  RH WIND       PRES   REMARKS
SIOUX FALLS    CLOUDY    23  18  81 CALM      30.13F
HURON          CLOUDY     8   6  92 CALM      30.12S
CHAMBERLAIN    CLOUDY    20  16  84 N5        30.09S WCI  14
MITCHELL       CLOUDY    23  19  85 SE6       30.13R WCI  16
YANKTON        CLOUDY    28  19  69 SE3       30.13S
$$

ABBREVIATIONS USED IN REMARKS
   TC - TEMPERATURE IN CELSIUS
  WCI - WIND CHILL INDEX
   HX - HEAT INDEX
  VSB - VISIBILITY





USA.gov is the U.S. government's official web portal to all federal, state and local government web resources and services.